Time,TemperatureF,DewpointF,PressureIn,WindDirection,WindDirectionDegrees,WindSpeedMPH,WindSpeedGustMPH,Humidity,HourlyPrecipIn,Conditions,Clouds,dailyrainin,SoftwareType,DateUTC
2015-05-04 00:01:00,61.0,44.0,-100.00,SE,130,5.0,8.0,54,-99.99,,,-99.99,,2015-05-04 04:01:00,
2015-05-04 00:11:00,60.0,45.0,-100.00,ESE,115,6.0,7.0,58,-99.99,,,-99.99,,2015-05-04 04:11:00,
2015-05-04 00:21:00,60.0,45.0,-100.00,ESE,115,7.0,9.0,58,-99.99,,,-99.99,,2015-05-04 04:21:00,
2015-05-04 00:31:00,60.0,45.0,-100.00,ESE,120,7.0,9.0,58,-99.99,,,-99.99,,2015-05-04 04:31:00,
2015-05-04 00:42:00,60.0,45.0,-100.00,ESE,120,7.0,9.0,58,-99.99,,,-99.99,,2015-05-04 04:42:00,
2015-05-04 00:51:00,61.0,45.0,-100.00,SE,135,6.0,7.0,55,-99.99,,,-99.99,,2015-05-04 04:51:00,
2015-05-04 01:02:00,61.0,44.0,-100.00,SE,130,6.0,7.0,54,-99.99,,,-99.99,,2015-05-04 05:02:00,
2015-05-04 01:11:00,60.0,45.0,-100.00,ESE,120,6.0,7.0,58,-99.99,,,-99.99,,2015-05-04 05:11:00,
2015-05-04 01:22:00,60.0,45.0,-100.00,SE,125,7.0,9.0,57,-99.99,,,-99.99,,2015-05-04 05:22:00,
2015-05-04 01:31:00,60.0,45.0,-100.00,SE,135,7.0,9.0,57,-99.99,,,-99.99,,2015-05-04 05:31:00,
2015-05-04 01:42:00,61.0,44.0,-100.00,SE,135,6.0,8.0,54,-99.99,,,-99.99,,2015-05-04 05:42:00,
2015-05-04 01:51:00,61.0,44.0,-100.00,SE,140,6.0,9.0,53,-99.99,,,-99.99,,2015-05-04 05:51:00,
2015-05-04 02:02:00,60.0,44.0,-100.00,SE,140,6.0,7.0,55,-99.99,,,-99.99,,2015-05-04 06:02:00,
2015-05-04 02:11:00,60.0,44.0,-100.00,SE,135,4.0,6.0,57,-99.99,,,-99.99,,2015-05-04 06:11:00,
2015-05-04 02:22:00,59.0,44.0,-100.00,SE,145,3.0,6.0,58,-99.99,,,-99.99,,2015-05-04 06:22:00,
2015-05-04 02:32:00,59.0,44.0,-100.00,SE,145,3.0,6.0,58,-99.99,,,-99.99,,2015-05-04 06:32:00,
2015-05-04 02:42:00,59.0,44.0,-100.00,SE,145,3.0,6.0,58,-99.99,,,-99.99,,2015-05-04 06:42:00,
2015-05-04 02:51:00,61.0,45.0,-100.00,North,0,0.0,0.0,54,-99.99,,,-99.99,,2015-05-04 06:51:00,
2015-05-04 03:02:00,61.0,45.0,-100.00,SSE,150,3.0,6.0,54,-99.99,,,-99.99,,2015-05-04 07:02:00,
2015-05-04 03:11:00,61.0,45.0,-100.00,SSE,150,3.0,6.0,54,-99.99,,,-99.99,,2015-05-04 07:11:00,
2015-05-04 03:21:00,61.0,45.0,-100.00,SSE,150,3.0,6.0,54,-99.99,,,-99.99,,2015-05-04 07:21:00,
2015-05-04 03:31:00,61.0,45.0,-100.00,SSE,150,3.0,6.0,54,-99.99,,,-99.99,,2015-05-04 07:31:00,
2015-05-04 03:42:00,58.0,44.0,-100.00,SE,145,4.0,6.0,60,-99.99,,,-99.99,,2015-05-04 07:42:00,
2015-05-04 03:51:00,58.0,44.0,-100.00,SE,130,4.0,6.0,60,-99.99,,,-99.99,,2015-05-04 07:51:00,
2015-05-04 04:01:00,57.0,44.0,-100.00,SE,135,5.0,6.0,62,-99.99,,,-99.99,,2015-05-04 08:01:00,
2015-05-04 04:11:00,56.0,44.0,-100.00,SE,135,6.0,7.0,64,-99.99,,,-99.99,,2015-05-04 08:11:00,
2015-05-04 04:21:00,58.0,45.0,-100.00,SE,140,7.0,9.0,61,-99.99,,,-99.99,,2015-05-04 08:21:00,
2015-05-04 04:31:00,59.0,45.0,-100.00,SE,145,6.0,8.0,58,-99.99,,,-99.99,,2015-05-04 08:31:00,
2015-05-04 04:41:00,59.0,45.0,-100.00,SE,140,6.0,8.0,59,-99.99,,,-99.99,,2015-05-04 08:41:00,
2015-05-04 04:51:00,59.0,45.0,-100.00,SE,145,7.0,8.0,59,-99.99,,,-99.99,,2015-05-04 08:51:00,
2015-05-04 05:01:00,59.0,45.0,-100.00,SE,140,7.0,7.0,59,-99.99,,,-99.99,,2015-05-04 09:01:00,
2015-05-04 05:11:00,59.0,45.0,-100.00,SE,140,6.0,7.0,59,-99.99,,,-99.99,,2015-05-04 09:11:00,
2015-05-04 05:21:00,59.0,45.0,-100.00,SE,135,7.0,9.0,60,-99.99,,,-99.99,,2015-05-04 09:21:00,
2015-05-04 05:31:00,59.0,45.0,-100.00,SE,135,7.0,9.0,60,-99.99,,,-99.99,,2015-05-04 09:31:00,
2015-05-04 05:42:00,58.0,45.0,-100.00,SE,140,6.0,7.0,61,-99.99,,,-99.99,,2015-05-04 09:42:00,
2015-05-04 05:51:00,59.0,45.0,-100.00,SE,135,6.0,8.0,60,-99.99,,,-99.99,,2015-05-04 09:51:00,
2015-05-04 06:01:00,59.0,45.0,-100.00,SE,140,6.0,9.0,60,-99.99,,,-99.99,,2015-05-04 10:01:00,
2015-05-04 06:11:00,59.0,45.0,-100.00,SE,140,6.0,9.0,60,-99.99,,,-99.99,,2015-05-04 10:11:00,
2015-05-04 06:21:00,59.0,45.0,-100.00,SE,145,6.0,8.0,60,-99.99,,,-99.99,,2015-05-04 10:21:00,
2015-05-04 06:32:00,57.0,45.0,-100.00,SE,135,6.0,8.0,62,-99.99,,,-99.99,,2015-05-04 10:32:00,
2015-05-04 06:42:00,57.0,45.0,-100.00,SE,140,6.0,7.0,62,-99.99,,,-99.99,,2015-05-04 10:42:00,
2015-05-04 06:52:00,58.0,45.0,-100.00,SE,145,6.0,7.0,61,-99.99,,,-99.99,,2015-05-04 10:52:00,
2015-05-04 07:02:00,58.0,45.0,-100.00,SSE,150,6.0,7.0,61,-99.99,,,-99.99,,2015-05-04 11:02:00,
2015-05-04 07:12:00,59.0,45.0,-100.00,SSE,150,6.0,9.0,60,-99.99,,,-99.99,,2015-05-04 11:12:00,
2015-05-04 07:21:00,57.0,45.0,-100.00,SE,145,7.0,8.0,63,-99.99,,,-99.99,,2015-05-04 11:21:00,
2015-05-04 07:32:00,57.0,46.0,-100.00,SE,135,6.0,7.0,66,-99.99,,,-99.99,,2015-05-04 11:32:00,
2015-05-04 07:42:00,58.0,46.0,-100.00,SE,135,6.0,8.0,63,-99.99,,,-99.99,,2015-05-04 11:42:00,
2015-05-04 07:52:00,59.0,47.0,-100.00,SE,130,7.0,9.0,63,-99.99,,,-99.99,,2015-05-04 11:52:00,
2015-05-04 08:02:00,61.0,47.0,-100.00,SE,140,9.0,11.0,60,-99.99,,,-99.99,,2015-05-04 12:02:00,
2015-05-04 08:11:00,62.0,47.0,-100.00,SE,130,9.0,12.0,59,-99.99,,,-99.99,,2015-05-04 12:11:00,
2015-05-04 08:22:00,62.0,48.0,-100.00,SE,140,9.0,12.0,58,-99.99,,,-99.99,,2015-05-04 12:22:00,
2015-05-04 08:32:00,63.0,48.0,-100.00,SE,135,9.0,12.0,57,-99.99,,,-99.99,,2015-05-04 12:32:00,
2015-05-04 08:42:00,63.0,48.0,-100.00,SE,135,9.0,12.0,57,-99.99,,,-99.99,,2015-05-04 12:42:00,
2015-05-04 08:52:00,64.0,49.0,-100.00,SSE,160,7.0,13.0,56,-99.99,,,-99.99,,2015-05-04 12:52:00,
2015-05-04 09:02:00,64.0,48.0,-100.00,South,170,7.0,14.0,56,-99.99,,,-99.99,,2015-05-04 13:02:00,
2015-05-04 09:11:00,65.0,49.0,-100.00,SSE,160,6.0,12.0,55,-99.99,,,-99.99,,2015-05-04 13:11:00,
2015-05-04 09:22:00,66.0,49.0,-100.00,SSE,165,9.0,14.0,54,-99.99,,,-99.99,,2015-05-04 13:22:00,
2015-05-04 09:31:00,67.0,49.0,-100.00,SSE,165,9.0,15.0,52,-99.99,,,-99.99,,2015-05-04 13:31:00,
2015-05-04 09:41:00,68.0,49.0,-100.00,South,190,11.0,14.0,50,-99.99,,,-99.99,,2015-05-04 13:41:00,
2015-05-04 09:51:00,69.0,48.0,-100.00,South,175,13.0,19.0,46,-99.99,,,-99.99,,2015-05-04 13:51:00,
2015-05-04 10:01:00,70.0,49.0,-100.00,South,170,11.0,19.0,46,-99.99,,,-99.99,,2015-05-04 14:01:00,
2015-05-04 10:42:00,73.0,49.0,-100.00,South,190,14.0,25.0,42,-99.99,,,-99.99,,2015-05-04 14:42:00,
2015-05-04 10:52:00,74.0,49.0,-100.00,South,175,12.0,20.0,42,-99.99,,,-99.99,,2015-05-04 14:52:00,
2015-05-04 11:02:00,73.0,48.0,-100.00,South,180,17.0,29.0,40,-99.99,,,-99.99,,2015-05-04 15:02:00,
2015-05-04 11:32:00,74.0,47.0,-100.00,South,170,16.0,22.0,38,-99.99,,,-99.99,,2015-05-04 15:32:00,
2015-05-04 11:42:00,76.0,46.0,-100.00,South,180,16.0,24.0,34,-99.99,,,-99.99,,2015-05-04 15:42:00,
2015-05-04 12:31:00,75.0,47.0,-100.00,South,180,17.0,25.0,35,-99.99,,,-99.99,,2015-05-04 16:31:00,
2015-05-04 13:02:00,78.0,48.0,-100.00,South,170,11.0,21.0,35,-99.99,,,-99.99,,2015-05-04 17:02:00,
2015-05-04 13:11:00,78.0,49.0,-100.00,South,175,14.0,21.0,35,-99.99,,,-99.99,,2015-05-04 17:11:00,
2015-05-04 13:32:00,79.0,49.0,-100.00,SSW,205,14.0,27.0,35,-99.99,,,-99.99,,2015-05-04 17:32:00,
2015-05-04 13:51:00,79.0,49.0,-100.00,South,175,12.0,19.0,34,-99.99,,,-99.99,,2015-05-04 17:51:00,
2015-05-04 14:02:00,79.0,49.0,-100.00,SSE,165,9.0,19.0,34,-99.99,,,-99.99,,2015-05-04 18:02:00,
2015-05-04 14:12:00,78.0,49.0,-100.00,SW,215,12.0,19.0,35,-99.99,,,-99.99,,2015-05-04 18:12:00,
2015-05-04 15:13:00,78.0,50.0,-100.00,South,180,12.0,21.0,37,-99.99,,,-99.99,,2015-05-04 19:13:00,
2015-05-04 15:32:00,79.0,50.0,-100.00,SSW,200,13.0,23.0,36,-99.99,,,-99.99,,2015-05-04 19:32:00,
2015-05-04 15:52:00,78.0,50.0,-100.00,South,185,14.0,21.0,37,-99.99,,,-99.99,,2015-05-04 19:52:00,
2015-05-04 16:02:00,78.0,51.0,-100.00,South,185,12.0,22.0,38,-99.99,,,-99.99,,2015-05-04 20:02:00,
2015-05-04 16:32:00,77.0,52.0,-100.00,South,185,8.0,16.0,41,-99.99,,,-99.99,,2015-05-04 20:32:00,
2015-05-04 16:42:00,74.0,55.0,-100.00,SW,220,9.0,15.0,49,-99.99,,,-99.99,,2015-05-04 20:42:00,
2015-05-04 16:51:00,74.0,55.0,-100.00,SW,220,9.0,15.0,49,-99.99,,,-99.99,,2015-05-04 20:51:00,
2015-05-04 17:01:00,74.0,58.0,-100.00,NNE,15,1.0,6.0,56,-99.99,,,-99.99,,2015-05-04 21:01:00,